F4JFI-13 Weather Reports


Display with metric or nautical units.
time (UTC)temp
F
wind
direction
speed
MPH
gust
MPH
rain 1hr
in
rain 24hr
in
rain mn
in
humidity
%
barometer
mb
20260510005208 58 112 1.0 0.0 0.00 0.00 0.00 78 1007.6
20260510004208 58 92 0.0 0.0 0.00 0.00 0.00 78 1007.6
20260510003208 58 100 0.0 0.0 0.00 0.00 0.00 78 1007.8
20260510002217 58 100 0.0 0.0 0.00 0.00 0.00 78 1008.0
20260510001208 58 100 0.0 0.0 0.00 0.00 0.00 76 1008.0
20260510000208 60 100 0.0 0.0 0.00 0.00 0.00 74 1008.0
20260509235208 60 96 0.0 0.0 0.00 0.00 0.00 72 1008.2
20260509234208 60 96 0.0 0.0 0.00 0.00 0.00 72 1008.2
20260509233208 60 96 0.0 0.0 0.00 0.00 0.00 70 1008.2
20260509232218 60 96 0.0 0.0 0.00 0.00 0.00 72 1008.2
20260509231208 62 96 0.0 0.0 0.00 0.00 0.00 70 1008.2
20260509230208 62 96 0.0 0.0 0.00 0.00 0.00 66 1008.2
20260509225208 62 96 0.0 0.0 0.00 0.00 0.00 64 1008.2
20260509224208 62 96 0.0 0.0 0.00 0.00 0.00 64 1008.2
20260509223208 62 96 0.0 0.0 0.00 0.00 0.00 62 1008.2
20260509222218 64 96 0.0 0.0 0.00 0.00 0.00 62 1008.0
20260509221208 64 102 0.0 0.0 0.00 0.00 0.00 62 1008.0
20260509220209 64 96 0.0 0.0 0.00 0.00 0.00 62 1007.8
20260509215208 64 96 0.0 0.0 0.00 0.00 0.00 62 1008.0
20260509214208 64 192 0.0 0.0 0.00 0.00 0.00 64 1008.0
20260509213208 62 114 1.0 0.0 0.00 0.00 0.00 66 1008.2
20260509212222 62 102 0.0 0.0 0.00 0.00 0.00 72 1008.2
20260509211208 62 84 0.0 0.0 0.00 0.00 0.00 74 1008.2
20260509210208 62 144 0.0 0.0 0.00 0.00 0.00 74 1008.4
20260509205208 62 144 0.0 0.0 0.00 0.00 0.00 74 1008.4
20260509204208 62 144 0.0 0.0 0.00 0.00 0.00 74 1008.4
20260509203208 62 144 0.0 0.0 0.00 0.00 0.00 72 1008.4
20260509202213 64 144 0.0 0.0 0.00 0.00 0.00 72 1008.2
20260509201208 64 144 0.0 0.0 0.00 0.00 0.00 72 1008.0
20260509200208 64 144 0.0 0.0 0.00 0.00 0.00 70 1008.0
20260509195208 66 144 0.0 0.0 0.00 0.00 0.00 70 1007.8
20260509194208 66 144 0.0 0.0 0.00 0.00 0.00 68 1007.6
20260509193208 68 144 0.0 0.0 0.00 0.00 0.00 66 1007.4
20260509192218 68 144 0.0 0.0 0.00 0.00 0.00 62 1007.4
20260509191208 68 144 0.0 0.0 0.00 0.00 0.00 62 1007.2
20260509190208 70 206 0.0 0.0 0.00 0.00 0.00 60 1007.2
20260509185208 70 116 0.0 0.0 0.00 0.00 0.00 60 1007.0
20260509184208 70 116 1.0 0.0 0.00 0.00 0.00 60 1006.8
20260509183208 70 112 1.0 0.0 0.00 0.00 0.00 58 1006.8
20260509182218 72 52 1.0 0.0 0.00 0.00 0.00 58 1006.8
20260509181208 72 160 2.0 0.0 0.00 0.00 0.00 56 1006.8
20260509180208 72 106 1.0 0.0 0.00 0.00 0.00 56 1006.6
20260509175208 72 136 1.0 0.0 0.00 0.00 0.00 56 1006.6
20260509174208 74 182 2.0 0.0 0.00 0.00 0.00 54 1006.4
20260509173208 74 110 1.0 0.0 0.00 0.00 0.00 56 1006.4
20260509172213 74 32 2.0 0.0 0.00 0.00 0.00 56 1006.4
20260509171209 74 82 3.0 0.0 0.00 0.00 0.00 56 1006.2
20260509170209 74 56 2.0 0.0 0.00 0.00 0.00 54 1006.2
20260509165208 74 122 4.0 0.0 0.00 0.00 0.00 54 1006.2
20260509164208 76 86 2.0 0.0 0.00 0.00 0.00 50 1006.2
20260509163208 76 32 1.0 0.0 0.00 0.00 0.00 52 1006.2
20260509162208 76 184 2.0 0.0 0.00 0.00 0.00 52 1006.2
20260509161208 76 100 1.0 0.0 0.00 0.00 0.00 52 1006.2
20260509160208 76 138 1.0 0.0 0.00 0.00 0.00 50 1006.4
20260509155208 76 112 2.0 0.0 0.00 0.00 0.00 52 1006.4
20260509154208 76 86 4.0 0.0 0.00 0.00 0.00 50 1006.4
20260509153208 76 56 1.0 0.0 0.00 0.00 0.00 54 1006.6
20260509152217 76 180 2.0 0.0 0.00 0.00 0.00 50 1006.6
20260509151208 76 94 3.0 0.0 0.00 0.00 0.00 48 1006.6
20260509150207 78 94 2.0 0.0 0.00 0.00 0.00 48 1006.8
20260509145208 78 154 3.0 0.0 0.00 0.00 0.00 52 1006.8
20260509144208 76 128 3.0 0.0 0.00 0.00 0.00 50 1006.8
20260509143208 76 72 2.0 0.0 0.00 0.00 0.00 52 1007.0
20260509142218 76 132 3.0 0.0 0.00 0.00 0.00 48 1007.2
20260509141208 76 170 3.0 0.0 0.00 0.00 0.00 50 1007.2
20260509140208 76 94 3.0 0.0 0.00 0.00 0.00 50 1007.4
20260509135208 78 178 1.0 0.0 0.00 0.00 0.00 50 1007.6
20260509134208 76 114 2.0 0.0 0.00 0.00 0.00 50 1007.6
20260509133208 76 248 3.0 0.0 0.00 0.00 0.00 52 1007.8
20260509132217 76 152 2.0 0.0 0.00 0.00 0.00 54 1007.8
20260509131208 76 180 2.0 0.0 0.00 0.00 0.00 54 1007.8
20260509130207 76 64 2.0 0.0 0.00 0.00 0.00 52 1008.0
20260509125208 74 66 1.0 0.0 0.00 0.00 0.00 56 1008.2
20260509124208 74 88 2.0 0.0 0.00 0.00 0.00 58 1008.2
20260509123208 74 230 3.0 0.0 0.00 0.00 0.00 56 1008.4
20260509122218 74 226 2.0 0.0 0.00 0.00 0.00 56 1008.4
20260509121208 74 68 3.0 0.0 0.00 0.00 0.00 58 1008.4
20260509120208 74 132 2.0 0.0 0.00 0.00 0.00 60 1008.4
20260509115208 74 72 2.0 0.0 0.00 0.00 0.00 56 1008.6
20260509114208 74 216 2.0 0.0 0.00 0.00 0.00 58 1008.6
20260509113208 72 210 3.0 0.0 0.00 0.00 0.00 62 1008.6
20260509112217 74 150 2.0 0.0 0.00 0.00 0.00 58 1008.8
20260509111208 74 102 3.0 0.0 0.00 0.00 0.00 56 1008.8
20260509110208 74 134 1.0 0.0 0.00 0.00 0.00 58 1009.0
20260509105208 72 178 3.0 0.0 0.00 0.00 0.00 58 1009.0
20260509104207 72 212 2.0 0.0 0.00 0.00 0.00 60 1009.2
20260509103208 72 94 2.0 0.0 0.00 0.00 0.00 60 1009.4
20260509102208 72 206 1.0 0.0 0.00 0.00 0.00 60 1009.4
20260509101208 72 120 3.0 0.0 0.00 0.00 0.00 60 1009.6
20260509100208 70 242 1.0 0.0 0.00 0.00 0.00 60 1009.8
20260509095208 70 112 2.0 0.0 0.00 0.00 0.00 64 1009.8
20260509094208 70 108 2.0 0.0 0.00 0.00 0.00 62 1010.0
20260509093208 70 50 2.0 0.0 0.00 0.00 0.00 62 1009.8
20260509092213 70 218 2.0 0.0 0.00 0.00 0.00 62 1010.0
20260509091208 70 112 3.0 0.0 0.00 0.00 0.00 62 1009.8
20260509090208 70 114 2.0 0.0 0.00 0.00 0.00 62 1009.6
20260509085208 68 106 2.0 0.0 0.00 0.00 0.00 62 1009.6
20260509084208 68 88 2.0 0.0 0.00 0.00 0.00 66 1009.8
20260509083208 66 88 2.0 0.0 0.00 0.00 0.00 64 1009.8
20260509082208 66 194 2.0 0.0 0.00 0.00 0.00 68 1009.8
20260509081208 66 96 2.0 0.0 0.00 0.00 0.00 68 1010.0
20260509080208 64 52 2.0 0.0 0.00 0.00 0.00 70 1010.0
20260509075208 64 136 1.0 0.0 0.00 0.00 0.00 70 1010.2
20260509074208 62 106 2.0 0.0 0.00 0.00 0.00 74 1010.4
20260509073208 60 116 1.0 0.0 0.00 0.00 0.00 74 1010.4
20260509072208 58 140 2.0 0.0 0.00 0.00 0.00 78 1010.6
20260509071208 58 110 2.0 0.0 0.00 0.00 0.00 76 1010.6
20260509070208 58 130 2.0 0.0 0.00 0.00 0.00 78 1010.8
20260509065209 56 108 3.0 0.0 0.00 0.00 0.00 78 1010.8
20260509064208 56 84 3.0 0.0 0.00 0.00 0.00 78 1011.0
20260509063208 56 114 1.0 0.0 0.00 0.00 0.00 80 1011.0
20260509062213 54 36 0.0 0.0 0.00 0.00 0.00 82 1011.0
20260509061208 54 68 0.0 0.0 0.00 0.00 0.00 84 1011.0
20260509060208 52 120 0.0 0.0 0.00 0.00 0.00 88 1011.0
20260509055208 52 120 0.0 0.0 0.00 0.00 0.00 90 1011.0
20260509054208 50 120 0.0 0.0 0.00 0.00 0.00 92 1011.0
20260509053208 50 164 0.0 0.0 0.00 0.00 0.00 92 1011.0
20260509052212 50 164 0.0 0.0 0.00 0.00 0.00 92 1011.0
20260509051207 50 164 0.0 0.0 0.00 0.00 0.00 92 1010.8
20260509050208 50 164 0.0 0.0 0.00 0.00 0.00 92 1010.8
20260509045208 50 164 0.0 0.0 0.00 0.00 0.00 92 1010.6
20260509044208 50 164 0.0 0.0 0.00 0.00 0.00 90 1010.6
20260509043208 50 164 0.0 0.0 0.00 0.00 0.00 90 1010.6
20260509042212 50 164 0.0 0.0 0.00 0.00 0.00 90 1010.4
20260509041207 50 164 0.0 0.0 0.00 0.00 0.00 90 1010.4
20260509040208 50 164 0.0 0.0 0.00 0.00 0.00 90 1010.4
20260509035208 50 164 0.0 0.0 0.00 0.00 0.00 90 1010.2
20260509034208 50 164 0.0 0.0 0.00 0.00 0.00 90 1010.2
20260509033208 50 164 0.0 0.0 0.00 0.00 0.00 90 1010.4
20260509032218 50 164 0.0 0.0 0.00 0.00 0.00 90 1010.4
20260509031207 52 164 0.0 0.0 0.00 0.00 0.00 90 1010.4
20260509030208 52 164 0.0 0.0 0.00 0.00 0.00 88 1010.6
20260509025208 52 164 0.0 0.0 0.00 0.00 0.00 88 1010.6
20260509024208 52 164 0.0 0.0 0.00 0.00 0.00 88 1010.6
20260509023208 52 164 0.0 0.0 0.00 0.00 0.00 88 1010.4
20260509022213 52 164 0.0 0.0 0.00 0.00 0.00 88 1010.6
20260509021208 52 164 0.0 0.0 0.00 0.00 0.00 88 1010.6
20260509020208 54 164 0.0 0.0 0.00 0.00 0.00 88 1010.6
20260509015208 54 164 0.0 0.0 0.00 0.00 0.00 86 1010.4
20260509014208 54 164 0.0 0.0 0.00 0.00 0.00 88 1010.4
20260509013208 54 164 0.0 0.0 0.00 0.00 0.00 86 1010.4
20260509012213 54 164 0.0 0.0 0.00 0.00 0.00 86 1010.4
20260509011208 54 164 0.0 0.0 0.00 0.00 0.00 86 1010.6
20260509010208 54 164 0.0 0.0 0.00 0.00 0.00 86 1010.6